Content
SEND FEEDBACK

Daily
Averages
Monthly
Summary
United States of America

BUCHANAN, VIRGINIA


Home > North America > United States > Virginia
Elevation: 987 feet     Latitude: 37 32N     Longitude: 079 41W

WEATHER
 
SELECT A DAY
Number of Records: 189,159;   Date Range: 1/1/95 - 9/18/14
 
SHARE

PRINT THIS DATA

[ ← Previous Day ]
WEATHER ALMANAC - JANUARY 23, 2013
[ Next Day → ]
[ °C ]   °F
Weather ElementAverageHighLow
Temperature26.6 °F33.1 °F (2:54 pm)18 °F (7:54 am)
Dewpoint3.6 °F15.1 °F (11:54 pm)-6 °F (11:54 am)
Humidity38.3 %52 % (11:54 pm)20 % (12:54 pm)
Barometer30.24 in30.35 in (7:54 am)30.04 in (11:54 pm)
Wind Speed8 mph17.3 mph (2:54 am)
Wind Gust24.2 mph (2:54 am)
Weather ElementAverage
Visibility10 mi
Wind DirectionSSW (207.8 °)

Weather ElementTotal
Precipitation---
Heating Degree Days39.5 (Base 65)
Averaged from 23 records on January 23, 2013
WEATHER CONDITIONS BREAKOUT
WIND DIRECTION BREAKOUT
WEATHER BY HOUR - JANUARY 23, 2013
[ °C ]   °F
Local TimeTemperatureDewpointHumidityBarometerVisibilityWind DirectionWind SpeedGust SpeedPrecipitationEventsConditions
1:54 AM21.0 °F-2.9 °F35 %30.29 in10.0 miWNW (300°)10.4 mphMostly Cloudy
2:54 AM21.0 °F-4.0 °F33 %30.31 in10.0 miWNW (300°)17.3 mph24.2 mphScattered Clouds
3:54 AM19.9 °F-4.0 °F35 %30.31 in10.0 miWNW (300°)15.0 mph19.6 mphClear
4:54 AM19.0 °F-2.0 °F40 %30.30 in10.0 miWNW (290°)5.8 mphClear
5:54 AM19.0 °F-2.9 °F38 %30.32 in10.0 miWNW (300°)9.2 mphClear
6:54 AM19.0 °F-2.9 °F38 %30.33 in10.0 miWNW (300°)6.9 mphClear
7:54 AM18.0 °F-2.0 °F41 %30.35 in10.0 miWNW (300°)3.5 mphClear
8:54 AM21.0 °F-2.9 °F35 %30.35 in10.0 miWest (270°)6.9 mphClear
9:54 AM23.0 °F-2.0 °F34 %30.35 in10.0 miWSW (250°)10.4 mphClear
10:54 AM26.1 °F-2.9 °F28 %30.35 in10.0 miWest (260°)9.2 mph16.1 mphClear
11:54 AM28.0 °F-6.0 °F23 %30.30 in10.0 miWest (270°)11.5 mph18.4 mphPartly Cloudy
12:54 PM30.9 °F-6.0 °F20 %30.25 in10.0 miWSW (250°)15.0 mph21.9 mphOvercast
1:54 PM32.0 °F-0.9 °F24 %30.23 in10.0 miWest (280°)12.7 mphMostly Cloudy
2:54 PM33.1 °F5.0 °F31 %30.20 in10.0 miWSW (250°)15.0 mph20.7 mphMostly Cloudy
3:54 PM32.0 °F9.0 °F38 %30.21 in10.0 miWest (270°)11.5 mphOvercast
4:54 PM32.0 °F12.9 °F45 %30.20 in10.0 miWest (280°)11.5 mphOvercast
5:54 PM30.9 °F12.9 °F47 %30.18 in10.0 miWest (280°)8.1 mphOvercast
6:54 PM30.9 °F12.9 °F47 %30.16 in10.0 miCalmOvercast
7:54 PM30.9 °F14.0 °F50 %30.14 in10.0 miCalmOvercast
8:54 PM32.0 °F14.0 °F48 %30.12 in10.0 miCalmOvercast
9:54 PM30.9 °F14.0 °F50 %30.09 in10.0 miCalmOvercast
10:54 PM30.9 °F14.0 °F50 %30.08 in10.0 miNNE (30°)4.6 mphMostly Cloudy
11:54 PM30.9 °F15.1 °F52 %30.04 in10.0 miCalmOvercast
Hourly data recorded from KROA, located miles away from Buchanan, Virginia







STORIES FROM OUR PARTNERS